Regional Weather Roundup
Issued by NWS Charleston, SC

Current Version | Previous Version | Graphics & Text | Print | Product List | Glossary On
Versions: 1 2 3 4 5 6 7 8 9 10 11 12 13 14 15 16 17 18 19 20 21 22 23 24 25 26 27 28 29 30 31 32 33 34 35 36 37 38 39 40 41 42 43 44 45 46 47 48 49 50
000
ASUS42 KCHS 260225
RWRCHS

REGIONAL WEATHER ROUNDUP
NATIONAL WEATHER SERVICE CHARLESTON SC
1000 PM EDT SAT OCT 25 2014

NOTE: "FAIR" INDICATES FEW OR NO CLOUDS BELOW 12,000 FEET WITH NO
SIGNIFICANT WEATHER AND/OR OBSTRUCTIONS TO VISIBILITY.

NOT ALL STATIONS ARE QUALITY CONTROLLED BY THE NATIONAL
WEATHER SERVICE. USE DATA WITH CAUTION...ESPECIALLY
DEWPOINT OBSERVATIONS.

SCZ027-030-031-034>040-042>050-260300-
...SOUTH CAROLINA...

CITY           SKY/WX    TMP DP  RH WIND       PRES   REMARKS
N CHARLESTON   CLEAR     61  51  70 CALM      29.97S
WATERFRONT PRK   N/A     63 N/A N/A SW3         N/A
FORT JOHNSON   NOT AVBL
JOHNS ISLAND   CLEAR     55  52  88 CALM      29.98R
PINOPOLIS      NOT AVBL
MONCKS CORNER  FAIR      52  52 100 CALM      29.98R
SUMMERVILLE    FAIR      52  52 100 CALM      29.98S
BEAUFORT MCAS  CLEAR     56  50  80 CALM      29.98F
BEAUFORT ARPT  FAIR      57  55  94 CALM      29.98S
HILTON HEAD IS   N/A     55  54  94 CALM      30.00R
GEORGETOWN     NOT AVBL
WALTERBORO     CLEAR     54 N/A N/A CALM      29.99S
ORANGEBURG     CLEAR     52  49  89 SW3       29.98R
BARNWELL       FAIR      52  48  87 CALM      30.00R
AIKEN          FAIR      54  46  76 CALM      30.02S
MANNING        FAIR      50  50 100 CALM      29.97S
KINGSTREE      NOT AVBL
COLUMBIA       CLEAR     54  48  80 W3        29.97S
SUMTER         CLEAR     55  49  81 SW2       29.95S
FLORENCE       CLEAR     54  45  71 SW3       29.95R
MYRTLE BEACH   CLEAR     54  46  76 CALM      29.95S
N MYRTLE BEACH CLEAR     54  48  80 W3        29.95R

$$

GAZ063-065-086>088-099>101-113>116-118-119-134-136>141-150-260300-
...GEORGIA...

CITY           SKY/WX    TMP DP  RH WIND       PRES   REMARKS
SAVANNAH ARPT  CLEAR     58  51  78 CALM      29.99S
HUNTER AAF     CLEAR     55  52  88 CALM      29.97S
FORT STEWART   CLEAR     56  51  84 CALM      29.99R
STATESBORO     NOT AVBL
SYLVANIA       CLEAR     58  56  94 CALM      30.01R
CLAXTON        FAIR      54  54 100 CALM      30.01R
THOMSON        CLEAR     54  54 100 CALM      30.05R
AUGUSTA-BUSH   CLEAR     50  43  77 CALM      29.99R
AUGUSTA-DANIEL CLEAR     65  45  48 CALM      30.00R
SWAINSBORO     FAIR      55  52  88 MISG      30.01S
VIDALIA        CLEAR     59  52  77 CALM      30.02R
ALMA           CLEAR     55  51  86 CALM      30.01S FOG
WAYCROSS       CLEAR     58  55  89 CALM      30.02R
JESUP          FAIR      54  52  94 CALM      30.02R
BRUNSWICK      CLEAR     55  54  94 CALM      30.02R
SAINT SIMONS   CLEAR     58  53  84 CALM      30.01R

$$

SCZ027-028-034-036>038-045-046-048>050-GAZ119-141-260300-
...LAKE AND SUPPLEMENTAL COASTAL OBSERVATIONS...

STATION/POSITION TIME  TEMP    WIND        PRES    WAVE   SWELL
                       AIR SEA DIR/SP/G            HT/PER HT/PER/DIR
                 (UTC) (F)     (DEG/KT/KT) (MB)    (FT/S) (FT/S/D)
UPR LAKE MARION  NOT AVBL
WINYAH BAY       0200   58        CALM     1014.0S
LAKE MURRAY      0100   65     280/  3/  3 1014.2S
ACE BASIN NERRS  0200   55        CALM     1015.0S
FORT PULASKI     0200   65     210/  3/  4 1015.7S
SAPELO ISLAND    NOT AVBL

$$

ANZ835-935-AMZ111-154-330-350-352-354-374-450-454-472-260300-
...C-MAN AND BUOY OBSERVATIONS...

STATION/POSITION TIME  TEMP    WIND        PRES    WAVE   SWELL
                       AIR SEA DIR/SP/G            HT/PER HT/PER/DIR
                 (UTC) (F)     (DEG/KT/KT) (MB)    (FT/S) (FT/S/D)
FOLLY BEACH CMAN 0200   65     250/  5/  5 1015.4S
BUOY 41004       0200   71 77  270/  8/ 10 1014.7R   2/10   2/10
BUOY 41008       0200   71 75   50/  2/  4 1015.8R   1/10   2/110/10
5E ST. MARYS GA  0200      75                N/A     2/11
FRYING PAN BUOY  0200   70 74  260/ 12/ 16 1014.4F   2/ 9   2/ 80/ 9
BUOY 41025       0200   68     240/ 14/ 16 1011.7F   3/10   2/ 60/10
CAPE LOOKOUT NC  0200   68     260/ 13/ 16 1012.4F
BUOY 41002       0136   72 77  350/  8/ 12 1013.6    3/10   3/ 40/10
BUOY 41010       0200   76 82   10/ 12/ 17 1014.1R   4/ 6   3/ 80/ 7
BUOY 41012       NOT AVBL
ST AUGUSTINE FL  0200   67     290/  4/  5 1017.0R
CAPERS NEARSHORE NOT AVBL
FRIPP NEARSHORE  NOT AVBL


$$



USA.gov is the U.S. government's official web portal to all federal, state and local government web resources and services.